Regional Weather Roundup
Issued by NWS Kansas City/Pleasant Hill, MO

Home | Current Version | Previous Version | Graphics & Text | Print | Product List | Glossary Off
Versions: 1 2 3 4 5 6 7 8 9 10 11 12 13 14 15 16 17 18 19 20 21 22 23 24 25 26 27 28 29 30 31 32 33 34 35 36 37 38 39 40 41 42 43 44 45 46 47 48 49 50

000
ASUS43 KEAX 102310
RWREAX

WEATHER ROUNDUP FOR EASTERN KANSAS AND NORTHWEST MISSOURI
NATIONAL WEATHER SERVICE KANSAS CITY/PLEASANT HILL MO
600 PM CDT THU JUL 10 2014

KSZ040-057-103>105-MOZ028-029-037-043-110000-
...KANSAS CITY METROPOLITAN AREA...

CITY           SKY/WX    TMP DP  RH WIND       PRES   REMARKS
K.C. INTL      MOSUNNY   82  65  56 SE17      30.03S
K.C. DOWNTOWN  MOSUNNY   84  64  50 SE14      30.02S
LEES SUMMIT    SUNNY     81  64  56 SE13      30.04F
OLATHE - IXD   PTSUNNY   83  67  58 SE15G21   30.03F
OLATHE - OJC   MOSUNNY   81  67  62 SE15      30.02F
LAWRENCE       SUNNY     82  67  60 S14       30.01F

$$

MOZ001>008-011>017-020>025-030>033-038>040-044>046-053-054-110000-
...NORTHERN AND CENTRAL MISSOURI...

CITY           SKY/WX    TMP DP  RH WIND       PRES   REMARKS
ST. JOSEPH     SUNNY     82  66  58 SE13      30.02R
MOSBY          CLEAR     81  64  57 SE9       30.03F
WHITEMAN AFB   SUNNY     81  59  47 SE8       30.05S
CLINTON        MOSUNNY   82  70  65 SE8       30.05S
SEDALIA        SUNNY     82  66  58 SE10      30.07S
WARSAW         NOT AVBL
MARSHALL         N/A     82  64  54 SE8       30.07S HAZE
CHILLICOTHE      N/A     81  59  47 SE6G17    30.06F
MOBERLY        SUNNY     82  59  44 E7        30.09S
KIRKSVILLE     SUNNY     79  58  48 SE10      30.09F

$$

MOZ041-047>049-056>058-063>065-088>090-097-110000-
...EASTERN AND SOUTHERN MISSOURI...

CITY           SKY/WX    TMP DP  RH WIND       PRES   REMARKS
ST. LOUIS INTL MOSUNNY   84  54  35 E12       30.09F
SPIRIT OF STL  MOSUNNY   81  56  42 S3        30.07F
COLUMBIA       SUNNY     80  62  54 E9        30.08F
JEFFERSON CITY SUNNY     81  61  50 SE6       30.06F
MEXICO         SUNNY     82  64  54 SE8       30.08F
HANNIBAL       SUNNY     82  50  32 SE3       30.10F
ROLLA          MOSUNNY   79  61  53 E7        30.08F
LEBANON        PTSUNNY   79  59  50 S6        30.09S
OSAGE BEACH    MOSUNNY   81  64  57 E6        30.07S
SPRINGFIELD    PTSUNNY   80  66  62 SE9       30.05F
BRANSON        CLOUDY    73  68  83 S13       30.08F
JOPLIN         SUNNY     80  65  59 SE9       30.03S
WEST PLAINS    CLOUDY    76  66  71 CALM      30.11R
PIEDMONT       CLOUDY    79  68  69 CALM      30.08S
MALDEN         PTSUNNY   84  63  48 NE6       30.06R

$$

IAZ060-094-KSZ022-034>040-054-083-096-NEZ052-066-093-110000-
...KANSAS...SOUTHEAST NEBRASKA AND IOWA...

CITY           SKY/WX    TMP DP  RH WIND       PRES   REMARKS
TOPEKA         SUNNY     85  64  49 SE14G24   29.99F
MANHATTAN      SUNNY     87  62  43 SE14      29.97S
EMPORIA        SUNNY     83  63  50 S20       30.00S
CHANUTE        SUNNY     82  64  54 SE13      30.01F
WICHITA        MOSUNNY   83  68  60 SE17      29.97S
OMAHA          PTSUNNY   84  65  52 S17G30    29.97F
LINCOLN        MOSUNNY   86  66  51 S21       29.95F
FALLS CITY     MOSUNNY   84  67  56 SE15      29.99S
LAMONI         SUNNY     80  58  46 SE13      30.06S
DES MOINES     MOSUNNY   83  57  41 S15G23    30.04F

$$




USA.gov is the U.S. government's official web portal to all federal, state and local government web resources and services.